Location: Ku?niki
(51.4449°N, 17.8974°E)
Time: 06:09:10
(UTC+00:00)

Cosmos 1943 - Pass Details

Date: 18 September 2020
Orbit: 833 x 850 km, 71.0° (Epoch: 18 October)

Event Time Altitude Azimuth Distance (km) Brightness Sun altitude
Rises 18:01:48 0° 326° (NNW) 3,401 7.2 -11.0°
Reaches altitude 10° 18:04:19 10° 321° (NW) 2,465 6.5 -11.4°
Maximum altitude 18:09:43 48° 249° (WSW) 1,090 4.2 -12.2°
Drops below altitude 10° 18:15:06 10° 176° (S) 2,460 5.4 -13.0°
Sets 18:17:37 0° 171° (S) 3,393 6.1 -13.4°
